Weather History for Sparta, IL

Change the Weather History Date:

Tuesday, November 22, 2011

  Actual Average (KBLV) Record (KBLV)
Temperature  
Mean Temperature 48 °F -  
Max Temperature 51 °F 52 °F 72 °F (2010)
Min Temperature 46 °F 32 °F 11 °F (1964)
Degree Days  
Heating Degree Days 16    
Moisture  
Dew Point 47 °F    
Average Humidity 96    
Maximum Humidity 100    
Minimum Humidity 93    
Precipitation  
Precipitation 0.80 in - - ()
Sea Level Pressure  
Sea Level Pressure 29.88 in    
Wind  
Wind Speed 6 mph (NNW)    
Max Wind Speed 14 mph    
Max Gust Speed 21 mph    
Visibility 6 miles    
Events Rain    
Averages and records for this station are not official NWS values.
T = Trace of Precipitation, MM = Missing Value Source: NWS Daily Summary

Daily Weather History Graph

Daily Weather History Graph

Search for Another Location

Airport:

Trip Planner

Search our weather history database for the weather conditions in past years. The results will help you decide how hot, cold, wet, or windy it might be!

Date:

Astronomy

Nov. 22, 2011 Rise Set
Actual Time 6:47 AM CST 4:42 PM CST
Civil Twilight 6:18 AM CST 5:11 PM CST
Nautical Twilight 5:46 AM CST 5:43 PM CST
Astronomical Twilight 5:14 AM CST 6:14 PM CST
Moon 3:39 AM CST (11/22) 2:40 PM CST (11/22)
Length of Visible Light 10h 52m
Length of Day
9h 55m
Waning Crescent, 9% of the Moon is Illuminated
Nov 22
Waning Crescent
Nov 25
New
Dec 2
First Quarter
Dec 10
Full
Dec 17
Last Quarter

Hourly Weather History & Observations

Time (CST) Temp. Windchill Dew Point Humidity Pressure Visibility Wind Dir Wind Speed Gust Speed Precip Events Conditions
12:15 AM 46.4 °F - 46.4 °F 100% 30.06 in 2.0 mi Calm Calm - N/A Rain Light Rain
12:35 AM 46.4 °F 42.4 °F 46.4 °F 100% 30.02 in 2.5 mi NNE 8.1 mph - N/A Rain Light Rain
12:55 AM 46.4 °F 42.9 °F 46.4 °F 100% 30.02 in 2.5 mi NE 6.9 mph - N/A   Overcast
1:15 AM 48.2 °F - 46.4 °F 93% 30.06 in 3.0 mi SSW 4.6 mph - 0.05 in Rain Heavy Rain
1:35 AM 48.2 °F - 46.4 °F 93% 30.04 in 4.0 mi Calm Calm - 0.13 in Rain Rain
1:55 AM 48.2 °F - 46.4 °F 93% 30.03 in 3.0 mi NNW 3.5 mph - 0.18 in Rain Rain
2:15 AM 48.2 °F - 46.4 °F 93% 30.03 in 2.5 mi NNW 3.5 mph - 0.11 in Rain Rain
2:35 AM 48.2 °F - 46.4 °F 93% 30.01 in 4.0 mi North 3.5 mph - 0.18 in Rain Heavy Rain
2:55 AM 48.2 °F - 46.4 °F 93% 30.01 in 5.0 mi ENE 4.6 mph - 0.23 in Rain Rain
3:15 AM 48.2 °F - 46.4 °F 93% 30.02 in 4.0 mi Calm Calm - 0.05 in Rain Rain
3:35 AM 48.2 °F - 46.4 °F 93% 30.00 in 4.0 mi Calm Calm - 0.10 in Rain Rain
3:55 AM 48.2 °F - 46.4 °F 93% 29.95 in 5.0 mi NE 6.9 mph - 0.12 in Rain Light Rain
4:15 AM 48.2 °F - 46.4 °F 93% 29.93 in 10.0 mi East 9.2 mph - 0.02 in   Drizzle
4:35 AM 48.2 °F - 46.4 °F 93% 29.91 in 10.0 mi ESE 12.7 mph - 0.02 in   Light Drizzle
4:55 AM 48.2 °F - 46.4 °F 93% 29.87 in 7.0 mi East 13.8 mph - 0.02 in Rain Light Rain
5:15 AM 48.2 °F - 48.2 °F 100% 29.85 in 10.0 mi East 9.2 mph - N/A   Light Drizzle
5:35 AM 48.2 °F - 48.2 °F 100% 29.85 in 10.0 mi East 6.9 mph - N/A   Overcast
5:55 AM 50.0 °F - 48.2 °F 94% 29.85 in 10.0 mi ENE 6.9 mph - N/A   Overcast
6:15 AM 50.0 °F - 48.2 °F 94% 29.83 in 10.0 mi NE 5.8 mph - N/A   Overcast
6:35 AM 50.0 °F - 48.2 °F 94% 29.82 in 10.0 mi NE 5.8 mph - N/A   Overcast
6:55 AM 50.0 °F - 50.0 °F 100% 29.82 in 10.0 mi NNE 5.8 mph - 0.02 in Rain Rain
7:15 AM 50.0 °F - 48.2 °F 94% 29.81 in 7.0 mi NNE 4.6 mph - 0.03 in Rain Heavy Rain
7:35 AM 51.8 °F - 50.0 °F 94% 29.80 in 7.0 mi ENE 6.9 mph - 0.09 in Rain Heavy Rain
7:55 AM 51.8 °F - 50.0 °F 94% 29.79 in 10.0 mi ENE 5.8 mph - 0.12 in Rain Heavy Rain
8:15 AM 51.8 °F - 50.0 °F 94% 29.79 in 5.0 mi NNE 4.6 mph - 0.02 in Rain Rain
8:35 AM 51.8 °F - 51.8 °F 100% 29.78 in 7.0 mi Calm Calm - 0.06 in Rain Rain
8:55 AM 51.8 °F - 51.8 °F 100% 29.78 in 4.0 mi Calm Calm - 0.07 in   Heavy Drizzle
9:15 AM 51.8 °F - 50.0 °F 94% 29.78 in 3.0 mi WNW 3.5 mph - 0.02 in   Drizzle
9:35 AM 51.8 °F - 50.0 °F 94% 29.78 in 2.5 mi NW 5.8 mph - 0.03 in   Heavy Drizzle
10:35 AM 50.0 °F - 48.2 °F 94% 29.80 in 7.0 mi WNW 9.2 mph - N/A   Unknown
10:55 AM 48.2 °F - 48.2 °F 100% 29.81 in 4.0 mi NW 13.8 mph 19.6 mph N/A   Overcast
11:15 AM 48.2 °F - 46.4 °F 93% 29.80 in 3.0 mi NW 12.7 mph 20.7 mph N/A Rain Light Rain
11:35 AM 48.2 °F - 46.4 °F 93% 29.81 in 4.0 mi NW 10.4 mph 13.8 mph N/A Rain Light Rain
11:55 AM 48.2 °F - 46.4 °F 93% 29.80 in 4.0 mi NW 8.1 mph - N/A   Light Drizzle
12:15 PM 48.2 °F - 46.4 °F 93% 29.80 in 5.0 mi NW 9.2 mph - N/A   Overcast
12:35 PM 48.2 °F - 46.4 °F 93% 29.81 in 10.0 mi WNW 6.9 mph - N/A   Overcast
12:55 PM 48.2 °F - 46.4 °F 93% 29.81 in 10.0 mi WNW 9.2 mph - N/A   Overcast
1:15 PM 46.4 °F 41.1 °F 46.4 °F 100% 29.81 in 10.0 mi NW 11.5 mph - N/A   Overcast
1:35 PM 46.4 °F 42.4 °F 46.4 °F 100% 29.82 in 10.0 mi WNW 8.1 mph - N/A   Overcast
1:55 PM 46.4 °F 41.5 °F 46.4 °F 100% 29.83 in 7.0 mi WNW 10.4 mph - N/A   Overcast
2:15 PM 46.4 °F 41.5 °F 46.4 °F 100% 29.83 in 2.5 mi WNW 10.4 mph - N/A   Overcast
2:35 PM 48.2 °F - 46.4 °F 93% 29.84 in 4.0 mi WNW 9.2 mph - N/A   Overcast
2:55 PM 48.2 °F - 46.4 °F 93% 29.85 in 5.0 mi WNW 9.2 mph 17.3 mph N/A   Drizzle
3:15 PM 48.2 °F - 46.4 °F 93% 29.86 in 2.0 mi WNW 8.1 mph - N/A Rain Light Rain
3:35 PM 48.2 °F - 46.4 °F 93% 29.88 in 2.5 mi WNW 9.2 mph - 0.01 in Rain Rain
3:55 PM 46.4 °F 41.9 °F 46.4 °F 100% 29.89 in 2.5 mi WNW 9.2 mph - 0.01 in   Light Drizzle
4:15 PM 46.4 °F 41.9 °F 46.4 °F 100% 29.90 in 2.5 mi WNW 9.2 mph 17.3 mph N/A   Overcast
4:35 PM 46.4 °F 41.9 °F 46.4 °F 100% 29.91 in 7.0 mi WNW 9.2 mph 18.4 mph N/A   Overcast
4:55 PM 46.4 °F 42.4 °F 46.4 °F 100% 29.92 in 7.0 mi NW 8.1 mph - N/A   Overcast
5:15 PM 46.4 °F 42.4 °F 46.4 °F 100% 29.93 in 5.0 mi NW 8.1 mph - N/A   Overcast
5:35 PM 46.4 °F 41.9 °F 46.4 °F 100% 29.94 in 4.0 mi WNW 9.2 mph - N/A   Light Drizzle
5:55 PM 46.4 °F 42.9 °F 46.4 °F 100% 29.95 in 7.0 mi NW 6.9 mph - N/A   Light Drizzle
6:15 PM 46.4 °F 42.4 °F 44.6 °F 93% 29.95 in 10.0 mi WNW 8.1 mph - N/A   Overcast
6:35 PM 46.4 °F 41.5 °F 44.6 °F 93% 29.96 in 10.0 mi WNW 10.4 mph 16.1 mph N/A   Overcast
6:55 PM 46.4 °F 41.5 °F 44.6 °F 93% 29.97 in 7.0 mi WNW 10.4 mph 18.4 mph N/A   Overcast
7:15 PM 46.4 °F 41.5 °F 44.6 °F 93% 29.99 in 5.0 mi WNW 10.4 mph 16.1 mph N/A   Overcast
7:35 PM 46.4 °F 42.4 °F 44.6 °F 93% 29.99 in 5.0 mi WNW 8.1 mph - N/A   Overcast
7:55 PM 46.4 °F 41.9 °F 44.6 °F 93% 30.00 in 5.0 mi WNW 9.2 mph - N/A   Overcast
8:15 PM 46.4 °F 41.9 °F 44.6 °F 93% 30.01 in 5.0 mi NW 9.2 mph - N/A   Overcast
8:35 PM 46.4 °F 41.9 °F 44.6 °F 93% 30.02 in 5.0 mi NW 9.2 mph - N/A   Overcast
8:55 PM 46.4 °F 42.4 °F 44.6 °F 93% 30.03 in 5.0 mi NW 8.1 mph - N/A   Overcast
9:15 PM 46.4 °F 42.9 °F 44.6 °F 93% 30.04 in 5.0 mi WNW 6.9 mph - N/A   Overcast
9:35 PM 46.4 °F 42.9 °F 44.6 °F 93% 30.05 in 5.0 mi WNW 6.9 mph - N/A   Overcast
9:55 PM 46.4 °F 41.5 °F 44.6 °F 93% 30.05 in 5.0 mi WNW 10.4 mph - N/A   Overcast
10:15 PM 46.4 °F 41.5 °F 44.6 °F 93% 30.06 in 7.0 mi WNW 10.4 mph - N/A   Overcast
10:35 PM 46.4 °F 42.9 °F 44.6 °F 93% 30.07 in 7.0 mi NW 6.9 mph - N/A   Overcast
10:55 PM 46.4 °F 41.5 °F 44.6 °F 93% 30.08 in 7.0 mi NW 10.4 mph - N/A   Overcast
11:15 PM 46.4 °F 41.9 °F 44.6 °F 93% 30.09 in 7.0 mi NW 9.2 mph 17.3 mph N/A   Overcast
11:35 PM 46.4 °F 42.4 °F 44.6 °F 93% 30.10 in 7.0 mi NW 8.1 mph - N/A   Overcast
11:55 PM 44.6 °F 40.2 °F 42.8 °F 93% 30.11 in 7.0 mi NW 8.1 mph - N/A   Overcast